Flag for Turkey Weather past 2 weeks in Mersin, Turkey

Now
81 °F

Passing clouds.


Feels Like: 80 °F
Forecast: 54 / 74 °F
Wind: 8 mph from Southwest

Location: Adana / Sakirpasa


UV Index: 7 (High)

Visibility: N/A


Pressure: 29.86 "Hg

Humidity: 37%

Dew point: 52 °F

Location of MersinLocation

Historic Weather in Mersin

°F

Mersin temperature yesterday

Maximum temperature yesterday: 68 °F (at 8:50 AM)
Minimum temperature yesterday: 57 °F (at 4:20 AM)
Average temperature yesterday: 63 °F

Past Weeks' High & Low Weather Summary

 TemperatureHumidityPressure
High84 °F (Apr 6, 3:20 PM)94% (Apr 6, 3:50 AM)30.12 "Hg (Apr 6, 3:50 AM)
Low50 °F (Apr 12, 4:20 AM)10% (Apr 6, 4:50 PM)29.74 "Hg (Apr 17, 3:20 PM)
Average66 °F63%29.94 "Hg
* Reported Apr 5 1:20 PM — Apr 20 1:50 PM, Mersin, Weather by CustomWeather, © 2014

Note: Actual official high and low records may vary slightly from our data, if they occured in-between our weather recording intervals... More about our weather records

Advertising

Historic Weather Conditions — Data for Previous 24 hours

 ConditionsComfort  
Time TempWeatherWind HumidityBarometerVisibility
1:50 PM
Apr 20
81 °FScattered clouds.8 mph32%29.89 "HgN/A
1:20 PM79 °FScattered clouds.6 mph34%29.89 "HgN/A
12:50 PM79 °FPassing clouds.6 mph32%29.89 "HgN/A
12:20 PM79 °FScattered clouds.6 mph32%29.89 "HgN/A
11:50 AM79 °FScattered clouds.2 mph37%29.92 "HgN/A
11:20 AM79 °FScattered clouds.3 mph34%29.92 "HgN/A
10:50 AM77 °FScattered clouds.1 mph34%29.92 "HgN/A
10:20 AM75 °FScattered clouds.2 mph39%29.92 "HgN/A
9:50 AM73 °FScattered clouds.3 mph41%29.92 "HgN/A
9:20 AM70 °FScattered clouds.5 mph46%29.92 "HgN/A
8:50 AM68 °FScattered clouds.5 mph49%29.92 "HgN/A
8:20 AM66 °FScattered clouds.2 mph52%29.92 "HgN/A
7:50 AM64 °FHaze.1 mph64%29.92 "Hg3 mi
7:20 AM57 °FFog.No wind94%29.95 "Hg3 mi
6:50 AM54 °FFog.2 mph94%29.95 "Hg3 mi
6:20 AM54 °FFog.5 mph88%29.95 "Hg3 mi
5:50 AM57 °FFog.6 mph77%29.95 "Hg3 mi
5:20 AM55 °FFog.1 mph88%29.95 "Hg3 mi
4:50 AM57 °FFog.6 mph82%29.95 "Hg3 mi
4:20 AM54 °FFog.5 mph94%29.95 "Hg3 mi
3:50 AM55 °FFog.3 mph94%29.95 "Hg3 mi
3:20 AM55 °FFog.No wind94%29.98 "Hg3 mi
2:50 AM54 °FFog.2 mph94%29.98 "Hg3 mi
2:20 AM54 °FFog.2 mph94%29.98 "Hg3 mi
1:50 AM55 °FFog.2 mph88%29.98 "Hg3 mi
1:20 AM57 °FFog.No wind88%30.01 "Hg3 mi
12:50 AM59 °FFog.5 mph88%30.01 "Hg3 mi
12:20 AM59 °FFog.2 mph88%30.01 "Hg3 mi
11:50 PM
Apr 19
59 °FFog.3 mph88%30.01 "Hg3 mi
11:20 PM59 °FFog.5 mph88%30.01 "Hg3 mi
10:50 PM59 °FFog.3 mph88%30.01 "Hg3 mi
10:20 PM61 °FFog.3 mph83%30.01 "Hg3 mi
9:50 PM61 °FFog.7 mph83%30.04 "Hg3 mi
9:20 PM61 °FFog.6 mph88%30.04 "Hg3 mi
8:50 PM63 °FFog.9 mph83%30.04 "Hg3 mi
8:20 PM63 °FFog.8 mph83%30.04 "Hg3 mi
7:50 PM63 °FFog.13 mph83%30.04 "Hg3 mi
7:20 PM63 °FFog.10 mph88%30.04 "Hg3 mi
6:50 PM64 °FFog.5 mph83%30.04 "Hg3 mi
6:20 PM64 °FFog.6 mph83%30.07 "Hg3 mi
5:50 PM64 °FFog.7 mph78%30.07 "Hg3 mi
5:20 PM64 °FFog.8 mph83%30.04 "Hg3 mi
4:50 PM64 °FFog.5 mph83%30.07 "Hg3 mi
4:20 PM63 °FSprinkles. Fog.9 mph88%30.04 "Hg3 mi
3:50 PM63 °FSprinkles. Fog.8 mph88%30.07 "Hg3 mi
3:20 PM63 °FSprinkles. Fog.7 mph88%30.09 "Hg3 mi
2:50 PM63 °FSprinkles. Fog.8 mph88%30.09 "Hg3 mi
2:20 PM63 °FSprinkles. Broken clouds.8 mph88%30.09 "HgN/A
Weather by CustomWeather, © 2014

See weather overview